STARLINK-32453, 61671

Orbit data source: Space-Track

STARLINK-32453, 61671 is a payload satellite owned by SpaceX/Seattle (US) in LEO that was launched on Sat, 26 Oct 2024 UTC via an FALCON 9 launch vehicle from the Air Force Eastern Test Range (AFETR). Payload-class satellites include a variety of spacecraft equipped with specific instruments for various scientific and technological missions. These include communications satellites like Starlink; space stations such as the ISS; scientific satellites like the Hubble; Earth observation satellites from companies like Planet Labs, Umbra, and HawkEye 360; GPS; miniature CubeSats for education and research; and military/defense satellites.

Loading next visibility...
Identifier
61671, 2024-193L
Orbit
LEO
Last TLE update
21 hours ago
Origin
Manufacturer
SpaceX/Seattle
Mission
Operational Commercial Communications
Bus & Motor
STARLINK V2M, Unknown motor
Mass
730 kg wet, ~700 kg dry
Launch date (UTC)
2024-10-26 (8 months ago)
Launch vehicle
FALCON 9
Launch site
Air Force Eastern Test Range (AFETR)
Object type
Payload
Rocket body
Debris
Shape & HBR
Box + 2 Pan, 29 m
Radar Cross Section
36.964 m², Large (>1 m²)

Expand to show TLE details & history

TLE from 21 hours ago
0 STARLINK-32453
1 61671U 24193L   25181.48095596  .00000016  00000-0  12682-4 0  9993
2 61671  53.1599 182.3983 0001176  80.0072 280.1061 15.30194473 37916
Epoch: 2025-06-30T11:32Z
TLE epoch observation values (Epoch: 2025-06-30T11:32:34.594Z)
Latitude
-0.00008°
Longitude
90.46395°
Altitude
475.99 km
Speed
7.629 km/s
True Right ascension
12h 09m 35s
True Declination
0° 00' 00"
Sunlit
Object was in daylight at epoch
Visualization orbit readout
Latitude
-28.02035°
Longitude
-70.30387°
Altitude
484.164 km
Speed
7.623 km/s
Apparent Right ascension
04h 26m 10s
Apparent Declination
-47° 28' 03"
Sunlit
Object is in daylight
Visualization observer readout
Local Sidereal Time
20:29:46
Azimuth
120.95° SE
Elevation
-46.471°
Doppler factor
1
Orbital elements
Apogee altitude
476.294 km
Perigee altitude
474.682 km
Semi-major axis
6,853.625 km
Eccentricity
0.00012
Inclination
53.1599°
RAAN
182.3983°
Arg. of periapsis
80.0072°
True anomaly
Unknown
Mean anomaly
280.1061°
Eccentric anomaly
Unknown
Mean motion
3.82527 °/min
Orbital period
94.11 mins
BSTAR
0.000012682
Loading maneuver chart data...
Loading SW <> Apogee altitude chart data...
Loading historical data...
Loading historical data...
Loading historical data...
Loading historical data...
Loading historical data...
Loading historical data...
Loading historical data...

STARLINK-32453 Visibility forecast

Observer location: undefined°, undefined°

Span
Click to sort rows by Start time (UTC) header in descending order
Start Az.
Max El. time (UTC)
Max El. Az.
Max El.
End time (UTC)
End Az.
6 mins2025-07-01 10:00:34.745Z297.405° NW2025-07-01 10:03:34.745Z206.044° SW37.625°2025-07-01 10:06:34.745Z148.874° SSE
5 mins2025-07-02 02:56:34.745Z253.428° W2025-07-02 02:58:34.745Z307.993° NW37.996°2025-07-02 03:01:34.745Z38.247° NE
4 mins2025-07-02 07:53:34.745Z342.448° N2025-07-02 07:55:34.745Z23.459° NE20.586°2025-07-02 07:57:34.745Z66.278° ENE
|